Regional Weather Roundup
Issued by NWS

Home | Current Version | Previous Version | Graphics & Text | Print | Product List | Glossary On
Versions: 1 2 3 4 5 6 7 8 9 10 11 12 13 14 15 16 17 18 19 20 21 22 23 24 25 26 27 28 29 30 31 32 33 34 35 36 37 38 39 40 41 42 43 44 45 46 47 48 49 50
000
ASUS45 KBOI 041510
RWRID
WEATHER ROUNDUP FOR IDAHO
NATIONAL WEATHER SERVICE BOISE ID
900 AM MDT MON MAY 04 2015

NOTE: "FAIR" INDICATES FEW OR NO CLOUDS BELOW 12000 FEET
WITH NO SIGNIFICANT WEATHER AND/OR OBSTRUCTIONS TO VISIBILITY

IDZ012-014-041600-
SOUTHWEST IDAHO


CITY           SKY/WX    TMP DP  RH WIND       PRES   REMARKS
BOISE          MOSUNNY   60  35  39 CALM      29.89S
CALDWELL       MOSUNNY   54  34  47 CALM      29.91R
$$

IDZ016-017-041600-
SOUTHCENTRAL IDAHO


CITY           SKY/WX    TMP DP  RH WIND       PRES   REMARKS
BURLEY         SUNNY     55  42  61 E5        29.94S
JEROME         SUNNY     57  41  55 NE16      29.94S
TWIN FALLS     SUNNY     60  40  47 N7        29.94R
$$

IDZ019>023-041600-
SOUTHEAST IDAHO


CITY           SKY/WX    TMP DP  RH WIND       PRES   REMARKS
IDAHO FALLS    MOSUNNY   51  43  74 N5        30.00R
POCATELLO      MOSUNNY   56  40  55 E3        29.98S
REXBURG        SUNNY     51  39  63 NE3       30.01R
$$

IDZ006-010-011-018-031-032-041600-
CENTRAL IDAHO MOUNTAINS


CITY           SKY/WX    TMP DP  RH WIND       PRES   REMARKS
MCCALL         MOSUNNY   46  32  58 CALM      29.96F
HAILEY         PTSUNNY   52  36  54 NW9       30.03R
STANLEY          N/A     38  27  64 N3        30.08S
SALMON           N/A     48  30  49 CALM      30.00S
CHALLIS        SUNNY     50  32  50 NE3       30.01S
$$

IDZ002-004-006-007-026-041600-
NORTHERN IDAHO


CITY           SKY/WX    TMP DP  RH WIND       PRES   REMARKS
LEWISTON       SUNNY     50  36  58 E6        29.91S
LOWELL           N/A     45  37  73 CALM      29.98F
COEUR D`ALENE  SUNNY     46  34  61 E6        29.94S
MULLAN PASS    SUNNY     46  21  37 S6        29.96S
$$


USA.gov is the U.S. government's official web portal to all federal, state and local government web resources and services.